Home > Weather > Malabo > Past weeks

Flag for Equatorial Guinea Weather for the Past 2 Weeks in Malabo, Equatorial Guinea

Now
79 °F

Partly sunny.


Feels Like: 82 °F
Forecast: 78 / 83 °F
Wind: 1 mph from North

Location: Malabo/Fernando Poo

Current Time: May 4, 2016 at 9:34:51 AM

Latest Report: May 4, 2016 at 9:00 AM


Visibility: N/A

Pressure: 29.95 "Hg

Humidity: 89%

Dew Point: 75 °F

Location of MalaboLocation

Historic Weather in Malabo — Graph

°F

Malabo Temperature Yesterday

Maximum temperature yesterday: 88 °F (at 11:00 AM)
Minimum temperature yesterday: 73 °F (at 2:00 AM)
Average temperature yesterday: 81 °F

High & Low Weather Summary for the Past Weeks

 TemperatureHumidityPressure
High91 °F (Apr 30, 11:00 AM)94% (Apr 19, 8:00 AM)29.95 "Hg (Apr 19, 8:00 AM)
Low73 °F (May 3, 2:00 AM)59% (Apr 27, 11:00 AM)29.74 "Hg (Apr 24, 4:00 PM)
Average82 °F82%29.83 "Hg
* Reported Apr 19 8:00 AM — May 4 8:00 AM, Malabo, Weather by CustomWeather, © 2016

Note: Actual official high and low records may vary slightly from our data, if they occured in-between our weather recording intervals... More about our weather records

Advertising

Malabo Weather History for the Previous 24 Hours

Scroll right to see more
 ConditionsComfort  
Time TempWeatherWind HumidityBarometerVisibility
8:00 AM
Wed, May 4
77 °FThunderstorms. Partly sunny.7 mph89%29.92 "HgN/A
7:00 AM75 °FThunderstorms. Passing clouds.5 mph89%29.86 "HgN/A
6:00 AM77 °FPassing clouds.2 mph83%29.86 "HgN/A
5:00 AM77 °FThunderstorms. Passing clouds.10 mph83%29.86 "HgN/A
4:00 AM77 °FThunderstorms. Passing clouds.12 mph89%29.89 "Hg5 mi
3:00 AM77 °FThunderstorms. Passing clouds.No wind89%29.86 "HgN/A
2:00 AM75 °FThunderstorms. Passing clouds.5 mph94%29.86 "HgN/A
1:00 AM77 °FThunderstorms. Passing clouds.1 mph89%29.89 "HgN/A
12:00 AM77 °FThunderstorms. Passing clouds.No wind94%29.92 "HgN/A
10:00 PM
Tue, May 3
79 °FPassing clouds.3 mph89%29.89 "HgN/A
9:00 PM79 °FPassing clouds.2 mph89%29.89 "HgN/A
8:00 PM81 °FPassing clouds.3 mph89%29.86 "HgN/A
7:00 PM82 °FPassing clouds.6 mph84%29.83 "HgN/A
6:00 PM84 °FScattered clouds.7 mph79%29.80 "HgN/A
5:00 PM88 °FScattered clouds.6 mph66%29.77 "HgN/A
4:00 PM86 °FScattered clouds.6 mph75%29.80 "HgN/A
3:00 PM88 °FPassing clouds.5 mph70%29.80 "HgN/A
2:00 PM88 °FPassing clouds.5 mph66%29.86 "HgN/A
1:00 PM88 °FScattered clouds.3 mph66%29.89 "HgN/A
12:00 PM86 °FPassing clouds.5 mph70%29.89 "HgN/A
11:00 AM88 °FScattered clouds.3 mph70%29.92 "HgN/A
10:00 AM86 °FScattered clouds.3 mph70%29.92 "HgN/A
9:00 AM84 °FPartly sunny.2 mph74%29.92 "HgN/A
Weather by CustomWeather, © 2016

See weather overviewHow to use our weather pages